Terre Haute, IN

12:04 AM EST on December 14, 2019 (GMT -0500)
Terre Haute International-Hulman

Weather History for KHUF - November, 2019

Change the Weather History Date:

Tuesday, November 12, 2019

  Actual Average Record
Temperature  
Mean Temperature 12 °F 45 °F  
Max Temperature 20 °F 55 °F 74 °F (1956)
Min Temperature 4 °F 35 °F 4 °F (2019)
Degree Days  
Heating Degree Days 53 20  
Month to date heating degree days 338 215  
Since 1 July heating degree days 658 642  
Cooling Degree Days 0 0  
Month to date cooling degree days 0 0  
Year to date cooling degree days 1298 993  
Moisture  
Dew Point 4 °F    
Average Humidity 74    
Maximum Humidity 91    
Minimum Humidity 56    
Precipitation  
Precipitation T in 0.13 in 0.68 in (2012)
Month to date precipitation 0.34 1.51  
Year to date precipitation 43.71 39.78  
Sea Level Pressure  
Sea Level Pressure 30.51 in    
Wind  
Wind Speed 9 mph (NW)    
Max Wind Speed 22 mph    
Max Gust Speed 29 mph    
Visibility 10 miles    
Events      
T = Trace of Precipitation, MM = Missing Value Source: NWS Daily Summary

Daily Weather History Graph

Daily Weather History Graph

Search for Another Location

Airport or City:

Astronomy

Nov. 12, 2019 Rise Set
Actual Time 7:29 AM EST 5:36 PM EST
Civil Twilight 7:00 AM EST 6:05 PM EST
Nautical Twilight 6:28 AM EST 6:37 PM EST
Astronomical Twilight 5:56 AM EST 7:09 PM EST
Moon 6:03 PM EST (11/12) 7:20 AM EST (11/12)
Length of Visible Light 11h 04m
Length of Day
10h 07m
Full, 100% of the Moon is Illuminated
Nov 12
Full
Nov 19
Last Quarter
Nov 26
New
Dec 4
First Quarter
Dec 12
Full

Hourly Weather History & Observations

Time (EST) Temp. Windchill Dew Point Humidity Pressure Visibility Wind Dir Wind Speed Gust Speed Precip Events Conditions
12:53 AM 18.0 °F 3.1 °F 9.0 °F 68% 30.42 in 10.0 mi NW 16.1 mph - 0.00 in   Overcast
1:53 AM 15.1 °F 1.8 °F 7.0 °F 70% 30.43 in 10.0 mi NW 11.5 mph - N/A   Clear
2:53 AM 14.0 °F -0.8 °F 5.0 °F 67% 30.43 in 10.0 mi NW 13.8 mph - N/A   Clear
3:53 AM 12.9 °F -1.6 °F 3.9 °F 67% 30.45 in 10.0 mi NW 12.7 mph - N/A   Clear
4:53 AM 12.0 °F -1.3 °F 3.0 °F 67% 30.46 in 10.0 mi NW 10.4 mph - N/A   Clear
5:53 AM 10.9 °F -1.8 °F 3.0 °F 70% 30.49 in 10.0 mi NW 9.2 mph 18.4 mph N/A   Clear
6:53 AM 10.0 °F -5.2 °F 3.0 °F 73% 30.49 in 10.0 mi NW 12.7 mph 18.4 mph N/A   Clear
7:53 AM 9.0 °F -5.1 °F 1.9 °F 73% 30.52 in 10.0 mi NW 10.4 mph - N/A   Clear
8:53 AM 10.0 °F -5.2 °F 1.9 °F 70% 30.54 in 10.0 mi NW 12.7 mph - N/A   Clear
9:53 AM 12.0 °F -2.7 °F 3.0 °F 67% 30.56 in 10.0 mi NNW 12.7 mph - N/A   Clear
10:53 AM 14.0 °F -0.8 °F 3.0 °F 62% 30.56 in 10.0 mi NNW 13.8 mph - N/A   Clear
12:53 PM 17.1 °F 5.8 °F 5.0 °F 59% 30.55 in 10.0 mi NW 9.2 mph - N/A   Clear
1:53 PM 17.1 °F 5.0 °F 5.0 °F 59% 30.54 in 10.0 mi NW 10.4 mph - N/A   Clear
2:53 PM 17.1 °F 5.0 °F 6.1 °F 62% 30.53 in 10.0 mi NW 10.4 mph - N/A   Clear
3:53 PM 17.1 °F 5.8 °F 5.0 °F 59% 30.53 in 10.0 mi WNW 9.2 mph - N/A   Clear
4:53 PM 16.0 °F 4.4 °F 3.9 °F 59% 30.54 in 10.0 mi NW 9.2 mph - N/A   Clear
5:53 PM 14.0 °F 5.1 °F 3.0 °F 62% 30.54 in 10.0 mi WNW 5.8 mph - N/A   Clear
6:53 PM 12.9 °F 6.9 °F 1.9 °F 62% 30.55 in 10.0 mi WNW 3.5 mph - N/A   Clear
7:53 PM 10.9 °F 2.9 °F 1.9 °F 67% 30.54 in 10.0 mi WNW 4.6 mph - N/A   Clear
8:53 PM 9.0 °F - 3.0 °F 77% 30.53 in 10.0 mi Calm Calm - N/A   Clear
9:53 PM 7.0 °F - 5.0 °F 92% 30.52 in 10.0 mi Calm Calm - N/A   Clear
10:53 PM 6.1 °F - 1.9 °F 83% 30.51 in 10.0 mi Calm Calm - N/A   Clear
11:53 PM 6.1 °F - 3.0 °F 87% 30.50 in 10.0 mi Calm Calm - N/A   Clear